Location: Dover
(51.1333°N, 1.3000°E)
Time: 21:57:28
(UTC+00:00)

Daily predictions for brighter satellites

Satellite Brightness Start Highest point End
(mag) Time Altitude Azimuth Time Altitude Azimuth Time Altitude Azimuth
Cosmos 1656 4.1 16:22:58 10° NNW 16:28:10 41° NE 16:33:25 10° ESE
USA 305 3.3 16:24:41 10° SW 16:28:47 53° SSE 16:32:55 10° ENE
USA 267 3.4 16:22:38 10° ENE 16:29:11 70° SE 16:35:42 10° SW
Cosmos 2237 Rocket 4.3 16:26:45 10° WNW 16:29:58 15° NNW 16:33:11 10° N
CZ-4C R/B 3.3 16:26:42 10° NNE 16:30:47 75° ESE 16:34:35 10° S
CZ-2C R/B 2.9 16:27:16 10° SSE 16:32:12 67° ENE 16:36:59 10° N
Cosmos 1340 Rocket 3.9 16:31:33 10° N 16:34:57 25° ENE 16:38:21 10° ESE
USA 229 DEB 4.1 16:29:13 10° NW 16:36:08 50° NNE 16:43:33 10° ESE
USA 229 4.1 16:29:19 10° NW 16:36:14 50° NNE 16:43:38 10° ESE
ADEOS 4.0 16:31:22 10° S 16:36:34 70° WSW 16:41:49 10° NNW
Cosmos 2233 Rocket 4.2 16:32:47 10° SSW 16:38:57 76° W 16:45:13 10° N
Meteor 1-31 Rocket 4.2 16:35:53 10° S 16:39:29 42° W 16:43:09 10° NNW
Lacrosse 5 rocket 2.0 16:38:07 10° W 16:41:40 37° N 16:45:17 10° ENE
Cosmos 1603 4.4 16:38:44 10° SW 16:44:21 53° NW 16:50:00 10° NNE
USA 276 2.3 16:41:14 10° W 16:44:21 71° S 16:47:28 10° E
ATLAS 2AS CENTAUR R/B 3.5 16:36:57 10° WSW 16:44:37 55° NW 16:52:00 10° NE
SL-16 R/B 4.1 16:40:46 10° W 16:45:08 22° NW 16:49:31 10° NNE
Cosmos-2242 3.6 16:42:15 10° SSW 16:46:30 60° WNW 16:50:45 10° N
ATLAS CENTAUR R/B 4.3 16:38:29 10° S 16:46:37 25° SE 16:50:56 10° E
SJ 16-02 1.4 16:44:25 10° NNW 16:48:49 87° WSW 16:53:11 10° SSE
Okean 3 Rocket 3.7 16:47:42 10° N 16:52:16 86° W 16:56:46 10° S
Cosmos 1500 Rocket 4.2 16:48:49 10° N 16:52:56 34° ENE 16:56:58 10° SE
RESURS DK-1 4.3 16:50:54 10° W 16:54:18 24° NW 16:57:42 10° NNE
Cosmos 2034 Rocket 4.3 16:50:35 10° SSE 16:56:20 43° E 17:02:06 10° NNE
MOS 1 Rocket 4.4 16:51:18 10° N 16:56:20 49° WNW 17:01:04 10° SW
SeaSat 1 4.2 16:54:02 10° NNE 16:58:01 25° NW 17:02:00 10° W
NOSS 3-1 (A) 4.0 16:52:38 10° NW 16:59:42 64° NE 17:08:07 10° ESE
USA 306 2.9 16:56:20 10° WSW 17:00:34 75° SSE 17:04:00 15° ENE
CORIOLIS 4.1 16:55:45 10° SSE 17:01:04 67° ENE 17:06:29 10° N
Spot 1 4.2 16:56:34 10° NNE 17:01:07 86° ESE 17:05:55 10° SSW
NOSS 2-1 (C) 2.7 16:58:10 10° SW 17:01:24 82° SE 17:04:08 15° NE
CZ-2D R/B 3.7 16:58:58 10° SE 17:02:32 38° ENE 17:06:07 10° N
NOSS 3-1 (C) 4.1 16:55:41 10° NW 17:02:55 86° NE 17:11:33 10° SE
Cosmos 1805 Rocket 4.4 16:59:58 10° N 17:03:43 27° ENE 17:07:26 10° SE
SL-08 R/B 3.5 16:59:50 10° NNE 17:04:38 74° WNW 17:09:17 10° SSW
USA 234 4.1 16:58:17 10° SE 17:04:38 53° SW 17:11:01 10° WNW
Cosmos 1943 4.3 16:59:25 10° WSW 17:04:41 39° NW 17:09:58 10° NNE
Iridium 2 3.9 17:01:00 10° N 17:04:46 72° W 17:08:30 10° S
Aureole 3 4.5 17:00:59 10° S 17:06:35 86° E 17:13:35 10° NNE
Cosmos 1842 Rocket 3.7 17:03:36 10° S 17:07:54 52° E 17:12:17 10° NNE
Cosmos 1833 Rocket 3.9 17:05:01 10° SSE 17:09:14 22° ESE 17:11:51 16° ENE
NOSS 2-1 (D) 2.8 17:07:29 10° SW 17:10:42 82° NW 17:13:12 17° NE
Meteor 2-2 Rocket 4.4 17:05:27 10° S 17:11:28 78° E 17:17:30 10° NNE
PSLV R/B 3.6 17:10:48 10° SSE 17:14:24 58° ENE 17:18:04 10° N
Sich 1 3.8 17:11:15 10° N 17:14:56 27° ENE 17:18:37 10° SE
CZ-4B R/B 3.4 17:09:49 10° SE 17:14:58 45° ENE 17:20:04 10° N
USA 307 2.9 17:12:44 10° WSW 17:17:02 83° SSE 17:19:51 21° ENE
ERBS 2.5 17:14:44 10° SW 17:17:52 52° SE 17:19:27 25° ENE
Cosmos 1939 Rocket 3.1 17:13:55 10° S 17:18:03 75° WSW 17:22:11 10° NNW
Cosmos 1898 Rocket 3.7 17:13:25 10° NNW 17:18:35 50° ENE 17:23:39 10° SE
SMAP 3.2 17:14:11 10° SSE 17:18:50 81° WSW 17:23:32 10° NNW
ARGOS 3.6 17:14:17 10° SE 17:19:17 39° ENE 17:24:17 10° N
Cosmos 1606 2.6 17:16:30 10° S 17:20:15 86° W 17:24:04 10° N
MOS 1-B Rocket 4.4 17:15:01 10° NNE 17:20:22 39° E 17:26:11 10° SSE
H-2A R/B 2.0 17:15:43 10° SSE 17:20:50 59° ENE 17:25:51 10° N
SL-24 R/B - RUBIN 2 4.5 17:16:51 10° NNW 17:21:07 31° NNE 17:23:11 21° ENE
COSMOS 2455 4.3 17:22:02 10° SE 17:25:33 16° ESE 17:25:53 16° E
ATLAS CENTAUR R/B 2.1 17:21:52 10° WSW 17:25:58 52° NW 17:29:26 16° NNE
Cosmos 44 3.4 17:22:12 10° NW 17:27:05 75° SW 17:31:37 10° SSE
Cosmos 2221 2.5 17:23:15 10° S 17:27:31 89° W 17:31:51 10° N
COSMO-SKYMED 1 3.3 17:29:13 22° NE 17:31:13 31° E 17:35:06 10° SSE
Cosmos 2026 Rocket 4.0 17:27:13 10° N 17:33:18 54° ENE 17:39:16 10° SSE
Cosmos 2195 Rocket 4.4 17:29:21 10° N 17:35:28 65° ENE 17:41:36 10° SSE
Cosmos 540 Rocket 4.4 17:32:08 10° SSE 17:36:18 26° E 17:37:02 25° E
SL-08 RB Rocket 4.3 17:32:57 10° SE 17:37:11 35° ENE 17:41:24 10° N
CZ-2C R/B 3.0 17:32:51 12° NNE 17:37:27 39° E 17:42:17 10° SSE
deb Chang Zheng 4 3.5 17:33:17 10° SSE 17:37:30 57° ENE 17:41:45 10° N
USA 308 2.8 17:35:00 10° WSW 17:39:16 82° NNW 17:41:12 32° ENE
Cosmos 1500 3.7 17:35:56 10° N 17:39:26 35° ENE 17:40:06 32° E
Cosmos 2360 Rocket 4.0 17:37:54 10° N 17:40:45 14° NNE 17:41:19 14° NNE
SJ-11-01 4.4 17:36:26 10° SE 17:41:03 53° ENE 17:45:41 10° N
Okean O Rocket 1.7 17:37:27 10° SE 17:41:46 53° ENE 17:46:08 10° N
Meteor 1-25 Rocket 4.1 17:36:54 10° N 17:42:30 78° ENE 17:48:05 10° SSE
ISS -3.8 17:40:38 10° W 17:44:03 80° N 17:44:55 47° E
Meteor 2-21 4.4 17:38:48 10° N 17:44:51 59° ENE 17:50:49 10° SSE
CZ-4C R/B 3.1 17:38:45 10° NW 17:45:13 48° NNE 17:49:48 24° E
YAOGAN 1 3.3 17:50:23 32° NE 17:50:23 32° NE 17:53:38 10° N
Cosmos 1461 4.4 17:49:04 10° W 17:52:45 29° NW 17:54:58 18° NNE
MOS 1-B 4.5 17:48:00 10° SSE 17:53:47 77° WSW 17:59:36 10° NNW
Cosmos 2084 3.5 17:52:29 10° NW 17:56:46 82° SW 17:59:41 21° SE
Cosmos 2322 Rocket 3.6 17:53:41 10° NNW 17:57:36 20° NNE 17:57:36 20° NNE
Cosmos 2369 3.7 17:52:12 10° NNW 17:57:55 63° NE 18:02:24 17° SE
CZ-4 R/B 2.9 18:00:22 22° NNE 18:00:22 22° NNE 18:02:06 10° N
Cosmos 1743 Rocket 4.1 17:56:11 10° NNW 18:00:28 60° W 18:04:43 10° S
GEOS 3 Rocket 3.6 17:57:07 10° SE 18:02:23 82° SW 18:07:37 10° NW
Cosmos 1782 3.0 17:59:06 10° S 18:02:36 48° ESE 18:02:36 48° ESE
Cosmos 1697 Rocket 2.7 18:00:30 10° NNW 18:06:10 85° WSW 18:11:47 10° SSE
Cosmos 1937 Rocket 3.4 18:01:08 10° NNW 18:06:30 83° ENE 18:11:50 10° SSE
NOSS 2-2 (C) 4.1 18:03:11 10° NW 18:07:59 68° NE 18:10:59 31° ESE
Cosmos 1980 Rocket 2.2 18:02:31 10° NNW 18:08:10 60° NE 18:10:40 32° ESE
USA 305 3.0 18:04:26 10° W 18:08:38 65° NNW 18:09:22 54° NE
Cosmos 1763 Rocket 3.3 18:03:57 10° SSW 18:09:00 76° ESE 18:11:17 33° NNE
NOSS 2-1 (E) 4.3 18:07:47 10° W 18:10:44 31° NNW 18:11:22 29° N
Cosmos 841 Rocket 4.0 18:05:59 10° S 18:10:09 37° ESE 18:10:09 37° ESE
Cosmos 1340 Rocket 4.4 18:07:44 10° NNW 18:11:29 36° W 18:15:13 10° SSW
Cosmos 2333 Rocket 4.1 18:08:50 10° N 18:11:34 14° NNE 18:11:34 14° NNE
Cosmos 1666 Rocket 3.7 18:07:39 10° N 18:11:32 51° NE 18:11:32 51° NE
USA 267 3.5 18:08:54 30° NE 18:12:12 63° NNW 18:18:38 10° W
SL-16 R/B 3.3 18:07:31 10° NNW 18:11:40 26° NNE 18:11:40 26° NNE
Meteor 2-14 Rocket 4.4 18:06:39 10° N 18:12:49 90° W 18:18:55 10° S
H-2A R/B 4.4 18:22:08 16° N 18:22:08 16° N 18:23:02 10° N
SKYMED 2 3.4 18:17:49 38° NNE 18:19:28 89° ESE 18:23:48 10° SSW
Spot 2 4.4 18:14:31 10° SSE 18:19:34 67° ENE 18:24:42 10° N
Cosmos 2082 Rocket 3.0 18:14:37 10° S 18:18:33 32° SE 18:18:33 32° SE
USA 276 3.6 18:17:18 10° W 18:19:58 32° SSW 18:19:58 32° SSW
Lacrosse 5 rocket 2.2 18:17:44 10° WNW 18:20:53 36° N 18:20:53 36° N
Cosmos 1602 4.5 18:17:41 10° NNW 18:21:26 52° W 18:25:11 10° S
Cosmos 1092 Rocket 4.5 18:15:18 10° NNW 18:21:35 63° W 18:27:49 10° S
IRS-1C Rocket 4.3 18:23:27 47° NE 18:23:27 47° NE 18:27:57 10° N
Cosmos 2278 3.7 18:18:19 10° NNW 18:23:59 58° NE 18:24:47 53° E
COSMOS 2406 3.2 18:19:27 10° SSW 18:25:05 61° ESE 18:26:01 53° ENE
Cosmos 1933 3.7 18:21:33 10° SSW 18:25:34 63° WNW 18:27:10 34° N
USA 229 DEB 4.3 18:20:16 10° NW 18:27:27 63° SW 18:35:05 10° SSE
USA 229 4.3 18:20:21 10° NW 18:27:33 64° SW 18:35:12 10° SSE
Meteor 2-21 Rocket 4.3 18:22:54 10° N 18:29:06 90° SW 18:35:11 10° S
Cosmos 1818 4.1 18:26:07 10° NW 18:31:00 43° NNE 18:31:00 43° NNE
Feng Yun 1-1 Rocket 4.3 18:25:50 10° SSE 18:31:47 88° WSW 18:37:43 10° NNW
Cosmos 372 Rocket 3.9 18:28:10 10° NNW 18:33:26 89° ENE 18:35:14 43° SSE
ATLAS 2AS CENTAUR R/B 4.0 18:30:22 10° WNW 18:37:10 32° N 18:39:54 26° NNE
Cosmos 2142 Rocket 4.3 18:32:28 10° S 18:38:35 78° E 18:44:48 10° NNE
Meteor 1-26 Rocket 4.4 18:34:23 10° SSW 18:40:20 82° WNW 18:45:47 13° N
USA 306 3.5 18:36:23 10° W 18:40:00 52° NW 18:40:00 52° NW
Cosmos 44 Rocket 4.3 18:41:59 10° NW 18:45:19 35° N 18:45:19 35° N
Cosmos 1833 Rocket 2.8 18:46:57 10° SW 18:52:35 74° WNW 18:53:35 59° N
Cosmos 2279 Rocket 3.9 18:50:31 10° S 18:56:44 85° W 19:01:20 19° N
USA 307 4.1 18:52:53 10° W 18:55:53 40° WNW 18:55:53 40° WNW
Cosmos 2219 Rocket 4.3 18:54:42 10° N 18:56:17 14° N 18:56:17 14° N
Cosmos 2266 Rocket 4.0 18:52:30 10° N 18:58:09 67° NNE 18:58:09 67° NNE
ARGOS 4.5 18:54:30 10° SSW 18:59:34 39° W 19:04:38 10° NNW
H-2A R/B 4.3 18:56:27 10° SW 19:00:37 24° W 19:04:42 10° NW
ATLAS CENTAUR R/B 3.7 19:02:39 10° WNW 19:05:34 19° NNW 19:05:34 19° NNW
COSMO-SKYMED 1 4.1 19:06:26 30° NW 19:07:23 34° WNW 19:11:18 10° SW
Cosmos 1655 Rocket 3.9 19:03:36 10° N 19:09:57 87° N 19:09:57 87° N
COSMOS 2455 3.2 19:04:30 10° SSW 19:09:04 53° SSW 19:09:04 53° SSW
Cosmos 540 Rocket 4.2 19:12:36 10° SW 19:16:55 50° W 19:16:55 50° W
CZ-2C R/B 3.9 19:14:22 18° N 19:17:44 36° WNW 19:22:25 10° SW
ATLAS CENTAUR R/B 3.2 19:11:04 10° WSW 19:16:49 48° WSW 19:16:49 48° WSW
Okean O Rocket 4.1 19:15:02 10° SW 19:18:26 21° W 19:21:50 10° NW
ISS -0.4 19:17:31 10° W 19:17:54 13° W 19:17:54 13° W
Cosmos 2360 Rocket 4.1 19:21:10 10° NNW 19:23:05 20° N 19:23:05 20° N
CZ-4 R/B 4.3 19:36:21 13° NW 19:36:21 13° NW 19:36:52 10° NW
CZ-4C R/B 3.1 19:27:12 10° NW 19:34:16 69° SW 19:35:01 65° SSW
Cosmos 2322 Rocket 4.0 19:37:15 10° NNW 19:39:25 24° NNW 19:39:25 24° NNW
Cosmos 1980 Rocket 3.9 19:47:03 10° NW 19:51:49 28° WSW 19:52:30 27° WSW
USA 267 4.0 19:56:15 46° NW 19:56:15 46° NW 20:01:08 10° WNW
SL-16 R/B 4.0 19:51:20 10° NNW 19:53:32 24° NW 19:53:32 24° NW
Cosmos 2082 Rocket 4.1 19:58:12 10° SW 20:00:28 24° WSW 20:00:28 24° WSW
ATLAS 2AS CENTAUR R/B 4.3 20:23:14 10° NW 20:27:19 28° NNW 20:27:19 28° NNW
